Location: Jasper Marmot Meadows
(52.8392°N, 118.0718°W)
Time: 09:56:42
(UTC-06:00)

ISS - Visible Passes

Search period start: 22 May 2018 00:00
Search period end: 01 June 2018 00:00
Orbit: 402 x 407 km, 51.6° (Epoch: 23 May)

Date Brightness Start Highest point End Pass type
(mag) Time Alt. Az. Time Alt. Az. Time Alt. Az.
22 May -4.0 01:10:56 10° WSW 01:14:12 70° S 01:17:27 10° E visible
22 May -3.9 02:47:21 10° W 02:50:35 56° SSW 02:53:46 10° ESE visible
22 May -2.5 04:24:09 10° W 04:26:38 20° SSW 04:29:07 10° SSE visible
22 May -2.6 22:43:19 10° SSW 22:45:58 23° SSE 22:48:37 10° E visible
23 May -3.9 00:18:50 10° WSW 00:22:04 60° SSE 00:25:18 10° E visible
23 May -4.0 01:55:12 10° W 01:58:27 67° S 02:01:42 10° ESE visible
23 May -3.0 03:31:47 10° W 03:34:40 29° SSW 03:37:31 10° SE visible
23 May -3.6 23:26:48 10° WSW 23:29:58 48° SSE 23:33:08 10° E visible
24 May -4.0 01:03:03 10° W 01:06:19 73° S 01:09:35 10° E visible
24 May -3.4 02:39:32 10° W 02:42:37 39° SSW 02:42:45 39° SSW visible
25 May -4.0 00:10:53 10° W 00:14:09 72° S 00:17:25 10° E visible
25 May -3.8 01:47:19 10° W 01:50:30 52° SSW 01:51:17 40° SSE visible
25 May -3.9 23:18:44 10° WSW 23:21:59 64° S 23:25:14 10° E visible
26 May -3.9 00:55:07 10° W 00:58:22 64° S 01:00:20 21° ESE visible
26 May -1.9 02:31:46 10° W 02:32:56 17° WSW 02:32:56 17° WSW visible
27 May -3.9 00:02:56 10° W 00:06:12 71° S 00:09:27 10° E visible
27 May -3.1 01:39:26 10° W 01:42:10 34° SW 01:42:10 34° SW visible
27 May -3.9 23:10:43 10° W 23:14:00 73° S 23:17:16 10° E visible
28 May -3.6 00:47:10 10° W 00:50:20 47° SSW 00:51:29 31° SE visible
28 May -3.8 23:54:56 10° W 23:58:10 60° SSW 00:00:49 14° ESE visible
29 May -2.2 01:31:39 10° W 01:33:27 20° SW 01:33:27 20° SW visible
29 May -3.8 23:02:42 10° W 23:05:57 69° S 23:09:12 10° ESE visible
30 May -3.0 00:39:14 10° W 00:42:11 31° SSW 00:42:50 28° S visible
30 May -3.4 23:46:55 10° W 23:50:02 43° SSW 23:52:15 17° SE visible
31 May -1.4 01:24:18 10° WSW 01:24:53 12° WSW 01:24:53 12° WSW visible
31 May -3.6 22:54:38 10° W 22:57:50 56° SSW 23:01:02 10° ESE visible
